Date String (YYYY-MM-DD hh:mm:ss) UTC,Instrument flags,Ambient pressure (hPa),Sample flow (lpm),Bypass flow (lpm),Sample temperature (°C),Ambient temperature (°C),ASC tube jacket temperature (°C),LED temperature (°C),Box temperature (°C),Sample RH (%),Span deviation,Mass concentration (μg/m³),Mass concentration (μg/m³),Mass concentration (μg/m³)
DateTimeUTC,F1_M11,P_M11,Q1_M11,Q2_M11,T1_M11,T2_M11,T3_M11,T4_M11,T5_M11,U1_M11,ZSPAN_M11,X0_M11,X2_M11,X1_M11
2021-09-28 12:00:00,,0823.2,4.98,0.00,30.1,29.0,00.0,39.1,31.8,15.0,0000.0,0023.05,0006.41,0004.22
2021-09-28 12:01:00,,0823.1,5.01,0.00,30.1,29.0,00.0,39.2,31.8,15.0,-000.4,0023.40,0006.33,0004.18
2021-09-28 12:02:00,,0823.2,4.99,0.00,30.1,29.0,00.0,39.2,31.9,14.9,-000.0,0023.10,0006.29,0004.16
2021-09-28 12:03:00,,0823.2,5.01,0.00,30.1,29.1,00.0,39.2,31.9,14.9,0000.0,0024.37,0006.21,0004.14
2021-09-28 12:04:00,,0823.1,4.99,0.00,30.1,29.1,00.0,39.2,31.9,14.8,0000.0,0024.81,0006.18,0004.12
2021-09-28 12:05:00,,0823.1,5.01,0.00,30.1,29.1,00.0,39.2,31.9,14.9,0000.0,0023.69,0005.99,0004.09
2021-09-28 12:06:00,,0823.1,5.01,0.00,30.1,29.1,00.0,39.2,31.9,14.9,0000.0,0023.48,0005.84,0004.07
2021-09-28 12:07:00,,0823.2,4.99,0.00,30.2,29.1,00.0,39.2,31.9,14.9,0000.6,0024.28,0005.77,0004.05
2021-09-28 12:08:00,,0823.1,5.01,0.00,30.2,29.1,00.0,39.2,31.9,14.8,0001.2,0023.64,0005.75,0004.03
2021-09-28 12:09:00,,0823.1,4.99,0.00,30.2,29.1,00.0,39.2,31.9,14.7,0000.7,0022.75,0005.76,0004.03
2021-09-28 12:10:00,,0823.1,5.01,0.00,30.2,29.1,00.0,39.3,31.9,14.7,0000.9,0022.50,0005.73,0004.03
2021-09-28 12:11:00,,0823.1,5.00,0.00,30.2,29.1,00.0,39.3,31.9,14.7,0000.8,0022.68,0005.71,0004.04
2021-09-28 12:12:00,,0823.1,4.99,0.00,30.2,29.1,00.0,39.3,31.9,14.6,0000.2,0021.59,0005.69,0004.04
2021-09-28 12:13:00,,0823.1,5.01,0.00,30.2,29.1,00.0,39.3,31.9,14.5,0000.0,0020.48,0005.65,0004.02
2021-09-28 12:14:00,,0823.1,4.99,0.00,30.2,29.1,00.0,39.3,31.9,14.4,0000.0,0019.45,0005.62,0004.00
2021-09-28 12:15:00,,0823.1,4.99,0.00,30.2,29.2,00.0,39.3,31.9,14.5,0000.0,0018.28,0005.51,0003.97
2021-09-28 12:16:00,,0823.1,5.00,0.00,30.2,28.2,00.0,39.3,31.7,14.5,0000.0,0018.50,0005.48,0003.95
2021-09-28 12:17:00,,0823.0,5.00,0.00,30.1,26.5,00.0,39.3,31.3,14.7,0000.0,0018.95,0005.49,0003.92
2021-09-28 12:18:00,,0823.0,5.02,0.00,30.0,26.4,00.0,39.2,31.3,14.9,0000.0,0017.83,0005.44,0003.90
2021-09-28 12:19:00,,0822.9,4.99,0.00,29.9,26.8,00.0,39.2,31.3,15.0,0000.0,0017.59,0005.36,0003.86
2021-09-28 12:20:00,,0823.0,5.00,0.00,29.8,27.2,00.0,39.1,31.3,15.1,0000.0,0018.51,0005.36,0003.85
2021-09-28 12:21:00,,0823.0,5.00,0.00,29.8,27.5,00.0,39.1,31.3,15.2,0000.0,0018.18,0005.38,0003.82
2021-09-28 12:22:00,,0822.9,5.01,0.00,29.8,27.8,00.0,39.1,31.4,15.2,0000.0,0017.73,0005.36,0003.78
2021-09-28 12:23:00,,0822.9,4.99,0.00,29.8,28.0,00.0,39.0,31.4,15.3,0000.0,0017.70,0005.30,0003.74
2021-09-28 12:24:00,,0822.9,5.00,0.00,29.8,28.2,00.0,39.0,31.5,15.3,0000.0,0018.42,0005.26,0003.71
2021-09-28 12:25:00,,0822.8,5.00,0.00,29.8,28.3,00.0,39.0,31.5,15.4,0000.0,0017.94,0005.21,0003.68
2021-09-28 12:26:00,,0822.8,4.99,0.00,29.8,28.4,00.0,39.0,31.5,15.5,0000.0,0017.50,0005.23,0003.67
2021-09-28 12:27:00,,0822.7,5.01,0.00,29.8,28.6,00.0,39.0,31.5,15.6,0000.0,0017.42,0005.26,0003.65
2021-09-28 12:28:00,,0822.8,5.00,0.00,29.8,28.6,00.0,39.0,31.6,15.7,0000.0,0016.53,0005.15,0003.61
2021-09-28 12:29:00,,0822.8,5.00,0.00,29.9,28.7,00.0,39.0,31.6,15.7,0000.0,0016.46,0005.05,0003.57
2021-09-28 12:30:00,,0822.8,5.00,0.00,29.9,28.8,00.0,39.0,31.7,15.6,0000.0,0016.76,0005.05,0003.56
2021-09-28 12:31:00,,0822.7,5.00,0.00,29.9,28.8,00.0,39.0,31.6,15.7,0000.0,0015.92,0004.98,0003.53
2021-09-28 12:32:00,,0822.7,5.01,0.00,29.9,28.8,00.0,39.0,31.6,15.7,0000.0,0015.29,0004.87,0003.49
2021-09-28 12:33:00,,0822.7,4.99,0.00,29.9,28.9,00.0,39.0,31.7,15.7,0000.0,0014.42,0004.79,0003.47
2021-09-28 12:34:00,,0822.7,5.02,0.00,29.9,28.9,00.0,39.0,31.7,15.8,0000.0,0014.24,0004.85,0003.46
2021-09-28 12:35:00,,0822.6,4.99,0.00,30.0,28.9,00.0,39.0,31.7,15.8,0000.0,0013.26,0004.85,0003.45
2021-09-28 12:36:00,,0822.7,5.00,0.00,30.0,28.9,00.0,39.0,31.7,15.7,0000.0,0012.78,0004.81,0003.43
2021-09-28 12:37:00,,0822.6,4.99,0.00,30.0,28.9,00.0,39.1,31.8,15.7,0000.0,0012.58,0004.74,0003.41
2021-09-28 12:38:00,,0822.6,5.01,0.00,30.0,29.0,00.0,39.1,31.7,15.7,0003.1,0012.20,0004.61,0003.39
2021-09-28 12:39:00,,0822.6,5.00,0.00,30.0,29.0,00.0,39.1,31.7,15.8,0003.5,0011.75,0004.59,0003.41
2021-09-28 12:40:00,,0822.6,4.99,0.00,30.0,29.0,00.0,39.1,31.7,15.8,0003.4,0011.45,0004.61,0003.42
2021-09-28 12:41:00,,0822.6,5.01,0.00,30.0,29.0,00.0,39.1,31.7,15.9,0003.4,0011.55,0004.56,0003.40
2021-09-28 12:42:00,,0822.5,5.00,0.00,30.1,29.1,00.0,39.1,31.7,15.8,0003.4,0011.68,0004.51,0003.38
2021-09-28 12:43:00,,0822.6,4.99,0.00,30.1,29.1,00.0,39.1,31.8,15.8,0003.3,0011.98,0004.43,0003.37
2021-09-28 12:44:00,,0822.6,5.01,0.00,30.1,29.1,00.0,39.1,31.8,15.8,0003.3,0011.85,0004.33,0003.33
2021-09-28 12:45:00,,0822.6,5.00,0.00,30.1,29.2,00.0,39.2,31.8,15.8,0003.3,0011.11,0004.16,0003.30
2021-09-28 12:46:00,,0822.5,4.99,0.00,30.1,29.2,00.0,39.2,31.8,15.7,0003.4,0011.43,0004.09,0003.28
2021-09-28 12:47:00,,0822.5,5.01,0.00,30.1,29.1,00.0,39.2,31.9,15.7,0003.6,0011.21,0004.05,0003.27
2021-09-28 12:48:00,,0822.5,5.00,0.00,30.1,29.2,00.0,39.2,31.9,15.8,0003.7,0011.58,0004.05,0003.26
2021-09-28 12:49:00,,0822.4,5.00,0.00,30.2,29.2,00.0,39.2,31.9,15.9,0003.8,0011.42,0003.98,0003.23
2021-09-28 12:50:00,,0822.4,5.01,0.00,30.2,29.2,00.0,39.2,31.9,15.9,0003.8,0011.40,0003.95,0003.21
2021-09-28 12:51:00,,0822.4,4.99,0.00,30.2,29.2,00.0,39.2,31.9,15.9,0003.7,0011.06,0003.89,0003.19
2021-09-28 12:52:00,,0822.4,5.01,0.00,30.2,29.3,00.0,39.3,32.0,16.0,0003.4,0010.00,0003.79,0003.16
2021-09-28 12:53:00,,0822.4,4.99,0.00,30.2,29.2,00.0,39.3,32.0,15.9,0003.0,0009.48,0003.75,0003.15
2021-09-28 12:54:00,,0822.4,5.01,0.00,30.2,29.2,00.0,39.3,32.0,15.9,0003.0,0008.52,0003.72,0003.14
2021-09-28 12:55:00,,0822.4,5.00,0.00,30.2,29.3,00.0,39.3,32.0,15.9,0002.1,0008.52,0003.73,0003.14
2021-09-28 12:56:00,,0822.4,5.00,0.00,30.3,29.3,00.0,39.3,32.0,16.0,0001.7,0008.48,0003.72,0003.13
2021-09-28 12:57:00,,0822.4,5.00,0.00,30.3,29.3,00.0,39.3,32.0,16.0,0001.6,0007.56,0003.66,0003.12
2021-09-28 12:58:00,,0822.4,5.00,0.00,30.3,29.3,00.0,39.3,32.0,16.0,0001.6,0007.45,0003.64,0003.09
2021-09-28 12:59:00,,0822.4,5.00,0.00,30.3,29.3,00.0,39.4,32.0,16.0,0001.2,0006.77,0003.55,0003.04
